[[{"header":{"parameterUnit":"m.s-1","parameterCategory":1,"la1":30.2991,"la2":30.254,"lo1":-89.0895,"lo2":-89.0444,"dy":0.0017,"dx":0.0017,"nx":28,"ny":28,"refTime":"2024-05-02T21:00:00:Z","depth":0,"parameterNumber":2,"parameterNumberName":"U-component_of_WINDS"},"data":[0,0,0,0,0,0,0,0,0,0,0,0,0,0,0,0,0,0,0,0,0,0,0,0,0,0,0,0,0,0,0,0,0,0,0,0,0,0,0,0,0,0,0,0,0,0,0,0,0,0,0,0,0,0,0,0,0,0,-3.3901,-3.3901,0,-3.395,-3.395,-3.3951,-3.3926,-3.3925,-3.3924,-3.3923,-3.397,-3.3973,-3.3975,0,0,0,0,0,0,0,0,0,0,0,0,0,-3.3786,-3.3789,-3.3901,-3.3902,-3.3902,-3.3949,-3.395,-3.3951,-3.3927,-3.3925,-3.3923,-3.3922,-3.3969,-3.3972,-3.3975,0,0,0,0,0,0,0,0,0,0,0,0,0,-3.3836,-3.3789,-3.3901,-3.3896,-3.3896,-3.3949,-3.395,-3.3951,-3.3927,-3.3925,-3.3923,-3.3921,-3.3968,-3.3972,-3.3976,-3.4036,0,0,-3.3987,-3.3988,0,0,0,0,0,0,0,0,-3.3833,-3.384,-3.3896,-3.3896,-3.3896,-3.393,-3.3927,-3.3979,-3.3927,-3.3915,-3.3923,-3.392,-3.3958,-3.3963,-3.3976,-3.4038,-3.404,-3.3987,-3.3989,-3.3991,-3.3992,0,0,0,0,0,0,0,-3.3829,-3.3838,-3.392,-3.3897,-3.3897,-3.3891,-3.3896,-3.3937,-3.3947,-3.3916,-3.3914,-3.3921,-3.3958,-3.3972,-3.3977,-3.4041,-3.3987,-3.399,-3.3993,-3.3994,-3.4157,-3.4159,0,0,0,0,0,0,-3.3826,-3.3835,-3.3918,-3.3921,-3.3859,-3.3894,-3.39,-3.3921,-3.3946,-3.3948,-3.3922,-3.3919,-3.3967,-3.3972,-3.3978,-3.4051,-3.3991,-3.3994,-3.3996,-3.4155,-3.4158,-3.416,0,0,0,0,0,0,-3.3824,-3.3834,-3.3917,-3.3878,-3.3888,-3.3898,-3.3922,-3.3923,-3.3937,-3.3951,-3.3952,-3.3935,-3.3966,-3.3973,-3.4022,-3.4053,-3.3996,-3.3999,-3.4153,-3.4156,-3.4159,-3.4198,0,0,0,0,0,0,-3.3821,-3.3833,-3.3856,-3.3879,-3.389,-3.396,-3.3924,-3.3925,-3.3944,-3.3941,-3.3963,-3.3965,-3.3965,-3.4017,-3.4026,-3.4057,-3.4002,-3.415,-3.4154,-3.4158,-3.4194,-3.4202,-3.4209,0,0,0,0,0,-3.3817,-3.3865,-3.3858,-3.3868,-3.3919,-3.3962,-3.3968,-3.3968,-3.3947,-3.397,-3.3979,-3.3964,-3.4048,-3.4022,-3.4032,-3.4064,-3.4148,-3.4153,-3.4157,-3.419,-3.42,-3.4208,0,0,0,0,0,0,-3.3844,-3.3867,-3.386,-3.3916,-3.3938,-3.3958,-3.3987,-3.3978,-3.4005,-3.4,-3.3998,-3.4003,-3.4054,-3.4064,-3.4035,-3.4125,-3.4095,-3.4102,-3.4116,-3.4126,-3.4133,-3.4129,-3.4005,0,0,0,0,0,-3.3858,-3.3891,-3.3909,-3.3957,-3.3968,-3.3976,-3.3994,-3.3992,-3.4014,-3.4022,-3.4034,-3.4055,-3.4087,-3.4107,-3.4136,-3.4196,-3.42,-3.4223,-3.423,-3.4236,-3.4242,-3.4275,-3.4285,-3.4176,-3.4176,-3.4176,0,0,-3.3884,-3.3901,-3.3921,-3.3963,-3.3979,-3.4013,-3.3983,-3.402,-3.4046,-3.4027,-3.4075,-3.4085,-3.4108,-3.4163,-3.4188,-3.4173,-3.4274,-3.4242,-3.4247,-3.425,-3.4281,-3.4291,-3.4301,-3.4179,-3.4178,-3.4178,0,0,-3.395,-3.3966,-3.4008,-3.4025,-3.4051,-3.4056,-3.4066,-3.4089,-3.4095,-3.4143,-3.413,-3.416,-3.4214,-3.4231,-3.4247,-3.4322,-3.431,-3.4332,-3.437,-3.4403,-3.4411,-3.4419,-3.4446,-3.4455,-3.4338,-3.4338,-3.4338,0,-3.3979,-3.4031,-3.4031,-3.4069,-3.4088,-3.4075,-3.4118,-3.4134,-3.4168,-3.4181,-3.4164,-3.4232,-3.4247,-3.4306,-3.4325,-3.4338,-3.435,-3.4328,-3.441,-3.4418,-3.4425,-3.445,-3.4461,-3.434,-3.434,-3.434,-3.4339,0,-3.4066,-3.4102,-3.4133,-3.4167,-3.4189,-3.423,-3.4236,-3.4259,-3.4256,-3.4263,-3.4312,-3.433,-3.4363,-3.4377,-3.4374,-3.4436,-3.4427,-3.441,-3.438,-3.4438,-3.4462,-3.4472,-3.4344,-3.4343,-3.4342,-3.4342,0,0,-3.4148,-3.4183,-3.4195,-3.421,-3.4239,-3.4266,-3.4307,-3.434,-3.436,-3.4384,-3.4418,-3.4465,-3.4451,-3.4469,-3.4467,-3.4496,-3.4555,-3.4476,-3.4476,-3.449,-3.4625,-3.4637,-3.4648,-3.4547,-3.4549,-3.4551,-3.4623,0,-3.4215,-3.4287,-3.4289,-3.4354,-3.4388,-3.4377,-3.4413,-3.4434,-3.4442,-3.4472,-3.4481,-3.4514,-3.4493,-3.4504,-3.4531,-3.4541,-3.4581,-3.4536,-3.4578,-3.458,-3.4572,-3.466,-3.4672,-3.474,-3.4632,-3.4634,-3.4635,0,-3.4303,-3.4332,-3.4401,-3.4425,-3.4439,-3.4471,-3.4503,-3.4532,-3.4556,-3.456,-3.4582,-3.4576,-3.4618,-3.4587,-3.4645,-3.4614,-3.4632,-3.464,-3.4642,-3.4645,-3.461,-3.4665,-3.4761,-3.4771,-3.465,-3.4649,-3.4648,0,-3.4356,-3.4412,-3.446,-3.4474,-3.4504,-3.4527,-3.4541,-3.4563,-3.4584,-3.4611,-3.4625,-3.4657,-3.4674,-3.4699,-3.4703,-3.468,-3.4761,-3.473,-3.4765,-3.4765,-3.4781,-3.478,-3.488,-3.4794,-3.4794,-3.4794,-3.4793,0,-3.4431,-3.4473,-3.4485,-3.4515,-3.4562,-3.4565,-3.4612,-3.4624,-3.4644,-3.4676,-3.4669,-3.4699,-3.4703,-3.4734,-3.4737,-3.4784,-3.4792,-3.4797,-3.4797,-3.4797,-3.4796,-3.4807,-3.4803,-3.4796,-3.4796,-3.4795,-3.4795,0,-3.4497,-3.4507,-3.4559,-3.4584,-3.4592,-3.4626,-3.4647,-3.4676,-3.4684,-3.4725,-3.4735,-3.4748,-3.4784,-3.4791,-3.4834,-3.4836,-3.4892,-3.4888,-3.4884,-3.4884,-3.4918,-3.4915,-3.5029,-3.5044,-3.4948,-3.4949,-3.495,0,-3.4544,-3.4577,-3.4606,-3.4627,-3.4642,-3.4677,-3.4698,-3.4703,-3.4725,-3.4757,-3.4782,-3.4818,-3.4846,-3.4905,-3.4918,-3.4951,-3.4948,-3.4986,-3.4952,-3.4952,-3.4948,-3.4946,-3.4949,-3.4991,-3.4992,-3.4993,-3.4994,0,-3.4626,-3.4629,-3.4661,-3.4695,-3.4721,-3.4748,-3.4773,-3.4791,-3.4799,-3.4825,-3.4862,-3.4885,-3.493,-3.4966,-3.4999,-3.5012,-3.5005,-3.5005,-3.5014,-3.5014,-3.501,-3.5013,-3.4901,-3.5001,-3.5001,-3.5,-3.5,-3.4999,-3.4683,-3.4712,-3.4738,-3.4774,-3.4794,-3.4818,-3.4847,-3.486,-3.4892,-3.4929,-3.493,-3.4971,-3.4996,-3.504,-3.5056,-3.5088,-3.5076,-3.509,-3.5094,-3.5097,-3.51,-3.5006,-3.5095,-3.5094,-3.5094,-3.5094,-3.5094,0,-3.4764,-3.4781,-3.4814,-3.485,-3.4879,-3.4871,-3.4899,-3.4923,-3.496,-3.4984,-3.5013,-3.5057,-3.5093,-3.5109,-3.5144,-3.5167,-3.5164,-3.5176,-3.5174,-3.5177,-3.5109,-3.5097,-3.5178,-3.5178,-3.5178,-3.5178,-3.5178,-3.5178,-3.481,-3.4859,-3.4866,-3.4925,-3.4941,-3.4982,-3.4999,-3.5022,-3.5041,-3.5091,-3.5121,-3.5132,-3.5153,-3.519,-3.5222,-3.5226,-3.5239,-3.5253,-3.5255,-3.5191,-3.5182,-3.5174,-3.5162,-3.5255,-3.5256,-3.532,-3.5321,-3.5321]},{"header":{"parameterUnit":"m.s-1","parameterCategory":1,"la1":30.2991,"la2":30.254,"lo1":-89.0895,"lo2":-89.0444,"dy":0.0017,"dx":0.0017,"nx":28,"ny":28,"refTime":"2024-05-02T21:00:00:Z","depth":0,"parameterNumber":3,"parameterNumberName":"V-component_of_WINDS"},"data":[0,0,0,0,0,0,0,0,0,0,0,0,0,0,0,0,0,0,0,0,0,0,0,0,0,0,0,0,0,0,0,0,0,0,0,0,0,0,0,0,0,0,0,0,0,0,0,0,0,0,0,0,0,0,0,0,0,0,4.1888,4.1887,0,4.1831,4.183,4.1829,4.1816,4.1816,4.1816,4.1817,4.1752,4.175,4.1748,0,0,0,0,0,0,0,0,0,0,0,0,0,4.198,4.1978,4.1888,4.1887,4.1886,4.1831,4.183,4.1829,4.1816,4.1816,4.1817,4.1817,4.1752,4.175,4.1747,0,0,0,0,0,0,0,0,0,0,0,0,0,4.1933,4.1978,4.1888,4.1873,4.1871,4.1831,4.183,4.1829,4.1815,4.1816,4.1817,4.1817,4.1753,4.175,4.1747,4.1715,0,0,4.1737,4.1736,0,0,0,0,0,0,0,0,4.1936,4.193,4.1876,4.1874,4.1872,4.1831,4.1839,4.1791,4.1815,4.1836,4.1817,4.1818,4.1777,4.1772,4.176,4.1712,4.1709,4.1737,4.1735,4.1734,4.1733,0,0,0,0,0,0,0,4.1939,4.1932,4.1865,4.1875,4.1873,4.1868,4.1862,4.1829,4.1804,4.1835,4.1834,4.1827,4.1776,4.1763,4.1758,4.1709,4.1737,4.1734,4.1732,4.1731,4.1633,4.1632,0,0,0,0,0,0,4.1946,4.1935,4.1867,4.1863,4.1906,4.1865,4.1859,4.1843,4.1804,4.1799,4.1827,4.1827,4.1768,4.1762,4.1756,4.1717,4.1734,4.1731,4.1729,4.1634,4.1633,4.1632,0,0,0,0,0,0,4.1948,4.194,4.1869,4.1899,4.1889,4.1863,4.1846,4.1842,4.1829,4.1798,4.1793,4.1818,4.1768,4.176,4.1726,4.1714,4.1729,4.1726,4.1635,4.1633,4.1632,4.1638,0,0,0,0,0,0,4.195,4.1941,4.1929,4.1899,4.1888,4.1842,4.1845,4.184,4.1824,4.1824,4.1789,4.1784,4.1768,4.1731,4.1723,4.171,4.1724,4.1635,4.1634,4.1633,4.1639,4.1638,4.1636,0,0,0,0,0,4.1954,4.1932,4.1929,4.1921,4.1874,4.1841,4.1835,4.1819,4.1823,4.1811,4.1792,4.1785,4.1717,4.1728,4.1718,4.1705,4.1636,4.1634,4.1633,4.164,4.1638,4.1636,0,0,0,0,0,0,4.1959,4.1927,4.1924,4.1892,4.187,4.1839,4.1823,4.1818,4.1792,4.1792,4.1772,4.1764,4.1732,4.1714,4.1727,4.1672,4.1676,4.1673,4.1685,4.1683,4.1681,4.1686,4.1721,0,0,0,0,0,4.1957,4.1935,4.1908,4.1882,4.1871,4.1849,4.1835,4.1825,4.18,4.179,4.1768,4.1743,4.1716,4.1698,4.1672,4.1637,4.1629,4.1623,4.1621,4.162,4.1617,4.1598,4.1595,4.1627,4.1627,4.1627,0,0,4.1951,4.1931,4.1918,4.1882,4.1864,4.1841,4.1841,4.1816,4.1798,4.1785,4.1753,4.1736,4.1706,4.1672,4.1656,4.1657,4.1607,4.1618,4.1618,4.1615,4.1596,4.1593,4.1591,4.1626,4.1626,4.1626,0,0,4.1929,4.1912,4.1889,4.1872,4.1845,4.1831,4.1826,4.1796,4.1786,4.1753,4.1743,4.1721,4.1675,4.1654,4.1638,4.161,4.1603,4.1602,4.1595,4.1576,4.1574,4.1571,4.1562,4.1558,4.1599,4.1599,4.1599,0,4.1925,4.1891,4.1877,4.1854,4.1838,4.1828,4.1804,4.1787,4.1752,4.1741,4.1743,4.1687,4.1666,4.1627,4.1621,4.1607,4.16,4.1605,4.1575,4.1573,4.1571,4.1561,4.1557,4.1599,4.1599,4.1599,4.1599,0,4.1887,4.1864,4.1848,4.1818,4.1801,4.1776,4.1758,4.1742,4.1734,4.1719,4.1686,4.1661,4.163,4.162,4.161,4.158,4.1582,4.158,4.1583,4.1568,4.1559,4.1555,4.1599,4.1599,4.1599,4.1599,0,0,4.1866,4.183,4.1824,4.1811,4.1782,4.1763,4.1738,4.171,4.1696,4.1673,4.1651,4.1613,4.1613,4.1594,4.1582,4.1566,4.1546,4.1566,4.1565,4.1564,4.1511,4.1513,4.1509,4.1542,4.1541,4.154,4.1514,0,4.184,4.1798,4.1786,4.175,4.1728,4.1719,4.1698,4.1677,4.1663,4.1641,4.1624,4.1598,4.1599,4.1588,4.1571,4.1552,4.1535,4.1554,4.152,4.1519,4.1528,4.1504,4.1505,4.1481,4.151,4.1509,4.1509,0,4.1805,4.1784,4.1746,4.1721,4.1712,4.1693,4.1667,4.1646,4.1622,4.1613,4.1594,4.1584,4.1556,4.1562,4.1524,4.1537,4.1523,4.1511,4.151,4.1506,4.1513,4.1499,4.1473,4.1469,4.1503,4.1503,4.1504,0,4.1793,4.1755,4.1728,4.1717,4.1687,4.1674,4.166,4.1637,4.1621,4.1598,4.1587,4.156,4.1545,4.1524,4.1506,4.1512,4.147,4.1474,4.146,4.1461,4.1451,4.1452,4.1422,4.1442,4.1442,4.1442,4.1442,0,4.1766,4.1743,4.1723,4.1706,4.1681,4.1667,4.1641,4.1627,4.1606,4.1586,4.1575,4.1556,4.1535,4.1512,4.1498,4.1469,4.1461,4.1452,4.1449,4.1453,4.1455,4.1443,4.1444,4.1441,4.1441,4.1442,4.1442,0,4.1748,4.1734,4.1704,4.1679,4.1672,4.1655,4.1632,4.1615,4.1601,4.1576,4.1569,4.1546,4.1519,4.15,4.1464,4.1455,4.1424,4.142,4.1433,4.1431,4.1418,4.142,4.138,4.1374,4.1398,4.1398,4.1398,0,4.1732,4.1715,4.1689,4.1676,4.1663,4.1641,4.1626,4.1611,4.1596,4.1568,4.1554,4.1527,4.1504,4.1461,4.1441,4.1414,4.1409,4.1397,4.1405,4.141,4.1409,4.1411,4.1409,4.1396,4.1396,4.1396,4.1396,0,4.1705,4.1699,4.1679,4.1656,4.1639,4.162,4.16,4.1589,4.1571,4.1553,4.1527,4.151,4.1475,4.1448,4.142,4.1404,4.1396,4.1394,4.1389,4.1393,4.1401,4.1397,4.1429,4.1394,4.1394,4.1395,4.1395,4.1395,4.1687,4.1672,4.1652,4.163,4.1614,4.1597,4.158,4.1565,4.1544,4.1516,4.1508,4.1481,4.1457,4.1418,4.1402,4.138,4.138,4.1373,4.1372,4.137,4.1371,4.1406,4.1374,4.1374,4.1374,4.1374,4.1374,0,4.1659,4.1647,4.1627,4.1601,4.1584,4.1581,4.156,4.1545,4.1522,4.1501,4.148,4.145,4.1424,4.1403,4.1376,4.1362,4.1358,4.1355,4.1356,4.1352,4.1372,4.1378,4.1359,4.1359,4.1359,4.1359,4.1359,4.1359,4.1643,4.1618,4.161,4.1576,4.1563,4.1538,4.1526,4.151,4.1494,4.1462,4.1441,4.1428,4.1407,4.1379,4.1355,4.1349,4.1339,4.1337,4.1331,4.1349,4.1351,4.1352,4.1359,4.1335,4.1335,4.1313,4.1313,4.1313]}]]